Showing default

DODECAPOLE 2, 1510

Orbit data source: Space-Track

DODECAPOLE 2, 1510 is a payload satellite owned by NRL (US) in LEO that was launched on Fri, 13 Aug 1965 UTC via a THOR ABLESTAR launch vehicle from the Air Force Western Test Range (AFWTR). Payload-class satellites include a variety of spacecraft equipped with specific instruments for various scientific and technological missions. These include communications satellites like Starlink; space stations such as the ISS; scientific satellites like the Hubble; Earth observation satellites from companies like Planet Labs, Umbra, and HawkEye 360; GPS; miniature CubeSats for education and research; and military/defense satellites.

Loading next visibility...
Identifier
1510, 1965-065C
Orbit
LEO
Country
Flag of USUS
Related business
Manufacturer
NRL
Mission
Spacecraft
Bus & Motor
NRL 9", Unknown motor
Mass
4 kg wet, 4 kg dry
Launch date (UTC)
1965-08-13 (61 years ago)
Launch vehicle
THOR ABLESTAR
Launch site
Air Force Western Test Range (AFWTR)
Object type
Payload
Rocket body
Debris
Shape & HBR
SPHERE + 12 ANT, 1.1 m
Radar Cross Section
Medium (>0.1 m² and <1 m²)

Expand to show TLE details & history
Last TLE update: 9 hours ago

TLE from 9 hours ago
0 DODECAPOLE 2
1 01510U 65065C   26256.10385944  .00001891  00000-0  10288-2 0  9994
2 01510  90.0701  25.6574 0037235 259.4514 100.2476 14.11622332 45560
Epoch: 2026-09-13T02:29Z
TLE epoch observation values (Epoch: 2026-09-13T02:29:33.455Z)
Latitude
-0.00002°
Longitude
-3.8353°
Altitude
861.757 km
Speed
7.419 km/s
True Right ascension
01h 42m 37s
True Declination
0° 00' 00"
Sunlit
Object was in full shadow at epoch
Visualization orbit readout
Latitude
Unknown
Longitude
Unknown
Altitude
Unknown
Speed
Unknown
Apparent Right ascension
Unknown
Apparent Declination
Unknown
Sunlit
N/A
Visualization observer readout
Local Sidereal Time
03:33:02
Azimuth
Unknown
Elevation
Unknown
Doppler factor
Unknown
Orbital elements
Apogee altitude
877.703 km
Perigee altitude
823.869 km
Semi-major axis
7,228.923 km
Eccentricity
0.00372
Inclination
90.0701°
RAAN
25.6574°
Arg. of periapsis
259.4514°
True anomaly
100.66712°
Mean anomaly
100.2476°
Eccentric anomaly
100.4574°
Mean motion
3.53129 °/min
Orbital period
101.95 mins
BSTAR
0.0010288
Loading maneuver chart data...
Computing Atmospheric mass density...
Loading historical data...
Loading historical data...
Loading historical data...
Loading historical data...
Loading historical data...
Loading historical data...
Loading historical data...

Documentation

Showing up to 5 results
|